SCP
0 0 0 0 0 0 0 0 0 0 0 0 0 0 0 0 0 0 0 0 0 0
0 0 0 0 0 0 0 0 0 0 0 0 0 0 0 0 0 0 0 0 0 0
0 0 0 0 0 0 0 0 0 0 0 0 0 0 0 0 0 0 0 0 0 0
0 0 0 0 0 0 0 0 0 0 0 0 0 0 0 0 0 0 0 0 0 0
0 0 0 0 0 0 0 0 0 0 0 0 0 0 0 0 0 0 0 0 0 0
0 0 0 0 0 0 0 0 0 0 0 0 0 0 0 0 0 0 0 0 0 0
0 0 0 0 0 0 0 0 0 0 0 0 0 0 0 0 0 0 0 0 0 0
0 0 0 0 0 0 0 0 0 0 0 0 0 0 0 0 0 0 0 0 0 0
0 0 0 0 0 0 0 0 0 0 0 0 0 0 0 0 0 0 0 0 0 0
0 0 0 0 0 0 0 0 0 0 0 0 0 0 0 0 0 0 0 0 0 0
0 0 0 0 0 0 0 0 0 0 0 0 0 0 0 0 0 0 0 0 0 0
0 0 0 0 0 0 0 0 0 0 0 0 0 0 0 0 0 0 0 0 0 0
0 0 0 0 0 0 0 0 0 0 0 0 0 0 0 0 0 0 0 0 0 0
0 0 0 0 0 0 0 0 0 0 0 0 0 0 0 0 0 0 0 0 0 0
Wind_Speed_500mb
60 60 62 61 62 62 65 65 60 59 56 53 50 50 50 56 58 58 64 68 72 70
57 59 60 59 59 60 58 59 57 60 58 63 66 61 55 55 55 55 56 56 55 50
55 56 56 52 51 50 48 49 49 51 54 55 57 59 56 54 55 56 54 52 50 46
37 38 40 42 44 45 43 43 44 48 50 51 46 49 52 53 53 55 53 49 49 43
25 24 24 25 28 31 35 37 41 45 47 46 47 48 51 52 54 52 51 47 45 43
20 17 15 12 11 11 14 19 22 27 30 32 36 40 43 46 45 45 47 45 46 49
18 16 14 12 10 9 9 11 13 16 20 25 30 35 39 38 37 41 43 44 52 54
11 11 10 8 6 6 7 10 12 15 18 20 22 24 28 32 43 38 37 39 45 47
9 9 8 7 6 6 7 8 11 14 17 21 25 28 30 28 32 36 38 42 47 49
25 25 22 19 16 16 16 18 19 20 23 26 27 28 32 37 39 44 46 48 51 55
28 32 31 29 28 26 24 24 23 25 30 30 31 31 31 34 39 43 47 49 52 51
29 26 27 28 26 24 24 27 30 37 39 35 32 32 33 34 36 39 41 44 46 47
31 27 21 18 16 17 22 27 32 33 34 36 37 38 38 39 40 41 40 42 44 45
17 16 16 18 22 26 29 30 31 32 34 36 38 39 41 41 43 45 46 46 45 44
Wind_Direction_500mb
234 236 239 242 246 248 249 250 252 253 251 249 250 250 254 259 257 258 259 261 265 270
231 236 241 243 245 248 250 252 252 252 254 249 248 248 251 256 257 259 262 263 266 264
235 236 241 241 246 249 251 251 251 252 251 256 253 250 249 255 257 257 261 264 262 261
231 236 240 241 242 244 245 246 249 251 253 256 250 249 249 252 254 256 258 258 253 256
206 215 225 232 239 245 250 250 251 254 257 257 253 253 253 255 255 256 252 252 248 260
160 167 174 184 198 215 231 242 249 253 256 257 257 257 257 258 256 253 248 249 249 254
146 151 155 162 174 188 208 226 241 253 260 262 262 261 260 256 256 258 255 250 249 250
147 152 156 164 182 206 229 239 245 248 252 255 258 254 254 258 253 256 256 253 253 254
237 234 217 218 234 259 276 287 290 289 282 274 267 262 260 256 254 253 264 259 261 262
240 243 245 253 266 283 292 296 300 305 306 301 290 276 265 262 259 259 260 261 262 262
255 248 247 250 258 263 272 280 288 300 302 297 294 291 285 274 266 264 263 263 262 261
254 254 251 254 259 267 274 278 282 285 290 292 288 286 283 281 279 277 272 267 264 262
255 257 248 243 251 265 271 274 275 277 279 281 284 284 283 281 280 277 275 273 270 267
211 217 232 243 247 251 255 259 266 270 274 279 282 282 281 279 277 280 278 273 271 271
Wind_Speed_850mb
60 60 62 61 62 62 65 65 60 59 56 53 50 50 50 56 58 58 64 68 72 70
57 59 60 59 59 60 58 59 57 60 58 63 66 61 55 55 55 55 56 56 55 50
55 56 56 52 51 50 48 49 49 51 54 55 57 59 56 54 55 56 54 52 50 46
37 38 40 42 44 45 43 43 44 48 50 51 46 49 52 53 53 55 53 49 49 43
25 24 24 25 28 31 35 37 41 45 47 46 47 48 51 52 54 52 51 47 45 43
20 17 15 12 11 11 14 19 22 27 30 32 36 40 43 46 45 45 47 45 46 49
18 16 14 12 10 9 9 11 13 16 20 25 30 35 39 38 37 41 43 44 52 54
11 11 10 8 6 6 7 10 12 15 18 20 22 24 28 32 43 38 37 39 45 47
9 9 8 7 6 6 7 8 11 14 17 21 25 28 30 28 32 36 38 42 47 49
25 25 22 19 16 16 16 18 19 20 23 26 27 28 32 37 39 44 46 48 51 55
28 32 31 29 28 26 24 24 23 25 30 30 31 31 31 34 39 43 47 49 52 51
29 26 27 28 26 24 24 27 30 37 39 35 32 32 33 34 36 39 41 44 46 47
31 27 21 18 16 17 22 27 32 33 34 36 37 38 38 39 40 41 40 42 44 45
17 16 16 18 22 26 29 30 31 32 34 36 38 39 41 41 43 45 46 46 45 44
Wind_Direction_850mb
234 236 239 242 246 248 249 250 252 253 251 249 250 250 254 259 257 258 259 261 265 270
231 236 241 243 245 248 250 252 252 252 254 249 248 248 251 256 257 259 262 263 266 264
235 236 241 241 246 249 251 251 251 252 251 256 253 250 249 255 257 257 261 264 262 261
231 236 240 241 242 244 245 246 249 251 253 256 250 249 249 252 254 256 258 258 253 256
206 215 225 232 239 245 250 250 251 254 257 257 253 253 253 255 255 256 252 252 248 260
160 167 174 184 198 215 231 242 249 253 256 257 257 257 257 258 256 253 248 249 249 254
146 151 155 162 174 188 208 226 241 253 260 262 262 261 260 256 256 258 255 250 249 250
147 152 156 164 182 206 229 239 245 248 252 255 258 254 254 258 253 256 256 253 253 254
237 234 217 218 234 259 276 287 290 289 282 274 267 262 260 256 254 253 264 259 261 262
240 243 245 253 266 283 292 296 300 305 306 301 290 276 265 262 259 259 260 261 262 262
255 248 247 250 258 263 272 280 288 300 302 297 294 291 285 274 266 264 263 263 262 261
254 254 251 254 259 267 274 278 282 285 290 292 288 286 283 281 279 277 272 267 264 262
255 257 248 243 251 265 271 274 275 277 279 281 284 284 283 281 280 277 275 273 270 267
211 217 232 243 247 251 255 259 266 270 274 279 282 282 281 279 277 280 278 273 271 271